Meteo Giornale » Osservazioni meteo Stati Uniti (USA) » Orange
ore: 02:31 - Osservazioni Meteo Orange
Lat. 42° 34' N Lon. 72° 16' W Alt. 169 metri s.l.m.
18 °C
Pioggia Foschia
Temp. 24 Ore
12 °C
24 °C
Nord
0 Km/h
Dew point 17 °C
Umidità 93 %
Visibilità 6 Km
Il sole sorge alle ore 06:14
Il sole tramonta alle ore 19:23
| Data e Ora | Cielo e Fenomeni | T °C | DP °C | Um. % | Pres. hPa | Vis. km | Vento km/h | |
|---|---|---|---|---|---|---|---|---|
| Oggi h: 02:31 | Pioggia Foschia | 18 | 17 | 93 | 1018 | 6 | N 0 | |
| Oggi h: 02:00 | Coperto | 19 | 17 | 88 | 1018 | 13 | N 5.5 | |
| Oggi h: 01:52 | Coperto | 19 | 16 | 82 | 1018 | 10 | S/SO 9.3 | |
| Oggi h: 00:52 | Coperto | 20 | 16 | 77 | 1018 | 10 | N 5.5 | |
| Ieri h: 23:52 | Coperto | 21 | 16 | 73 | 1018 | 10 | N 5.5 | |
| Ieri h: 22:52 | Coperto | 21 | 16 | 73 | 1019 | 10 | N 0 | |
| Ieri h: 21:52 | Coperto | 21 | 17 | 77 | 1018 | 10 | N 0 | |
| Ieri h: 20:52 | Coperto | 21 | 16 | 73 | 1018 | 10 | S 7.4 | |
| Ieri h: 19:52 | Coperto | 21 | 16 | 73 | 1018 | 10 | N 5.5 | |
| Ieri h: 18:52 | Coperto | 22 | 15 | 64 | 1019 | 10 | N 0 | |
| Ieri h: 17:52 | Coperto | 23 | 15 | 60 | 1019 | 10 | S/SO 9.3 | |
| Ieri h: 16:52 | Nuvoloso | 24 | 14 | 53 | 1019 | 10 | S/SO 14.8 | |
| Ieri h: 15:52 | Nuvoloso | 24 | 14 | 53 | 1019 | 10 | S 11.1 | |
| Ieri h: 14:52 | Sereno | 24 | 13 | 50 | 1019 | 10 | S/SE 11.1 | |
| Ieri h: 13:52 | Poco Nuvoloso | 24 | 13 | 50 | 1020 | 10 | S 13 | |
| Ieri h: 12:52 | Poco Nuvoloso | 24 | 13 | 50 | 1020 | 10 | N 5.5 | |
| Ieri h: 11:52 | Molto Nuvoloso | 23 | 13 | 53 | 1021 | 10 | N 0 | |
| Ieri h: 10:52 | Poco Nuvoloso | 22 | 13 | 56 | 1021 | 10 | N 0 | |
| Ieri h: 09:52 | Sereno | 21 | 13 | 60 | 1021 | 10 | N 0 | |
| Ieri h: 08:52 | Sereno | 19 | 15 | 77 | 1021 | 10 | N 0 | |
| Ieri h: 07:52 | Sereno | 16 | 14 | 87 | 1021 | 10 | N 0 | |
| Ieri h: 06:52 | Poco Nuvoloso | 13 | 12 | 93 | 1020 | 14 | N 5.5 | |
| Ieri h: 06:34 | Nuvoloso | 12 | 12 | 100 | 1020 | 10 | N 0 | |
| Ieri h: 06:27 | Molto Nuvoloso | 13 | 13 | 100 | 1020 | 10 | N 0 | |
| Ieri h: 06:20 | Foschia | 13 | 13 | 100 | 1020 | 2 | N 0 | |
| Ieri h: 06:18 | Foschia | 13 | 12 | 93 | 1020 | 2 | N 0 | |
| Ieri h: 06:13 | Nebbia | 12 | 12 | 100 | 1020 | 2 | N 5.5 | |
| Ieri h: 06:04 | Foschia | 13 | 13 | 100 | 1020 | 5 | N 0 | |
| Ieri h: 06:02 | Foschia | 13 | 13 | 100 | 1020 | 2 | N 0 | |
| Ieri h: 06:00 | Foschia | 13 | 12 | 93 | 1020 | 3 | N 0 | |
| Ieri h: 05:55 | Foschia | 12 | 12 | 100 | 1020 | 5 | N 0 | |
| Ieri h: 05:52 | Foschia | 12 | 12 | 100 | 1020 | 2 | N 0 | |
| Ieri h: 05:49 | Foschia | 12 | 12 | 100 | 1020 | 2 | N 0 | |
| Ieri h: 05:45 | Foschia | 12 | 12 | 100 | 1020 | 3 | N 0 | |
| Ieri h: 05:38 | Foschia | 13 | 12 | 93 | 1020 | 5 | N 0 | |
| Ieri h: 05:26 | Foschia | 13 | 13 | 100 | 1020 | 5 | N 0 | |
| Ieri h: 05:23 | Foschia | 13 | 13 | 100 | 1020 | 5 | N 0 | |
| Ieri h: 04:52 | Sereno | 14 | 13 | 93 | 1020 | 10 | N 0 | |
| Ieri h: 03:52 | Sereno | 14 | 14 | 100 | 1019 | 10 | N 0 | |
| Ieri h: 02:52 | Sereno | 14 | 14 | 100 | 1019 | 10 | N 0 | |



